Home > Weather > Leicester > Past weeks

Flag for United Kingdom Past Weather in Leicester, England, United Kingdom — Yesterday and Last 2 Weeks

Now
55 °F

Passing clouds.


Feels Like: 51 °F
Forecast: 50 / 58 °F
Wind: 16 mph from North

Location: East Midlands

Current Time: May 30, 2016 at 11:14:30 PM

Latest Report: May 30, 2016 at 10:20 PM


Visibility: N/A

Pressure: 30.09 "Hg

Humidity: 67%

Dew Point: 45 °F

Location of LeicesterLocation

Past Weather in Leicester — Graph

°F

Leicester Temperature Yesterday

Maximum temperature yesterday: 64 °F (at 5:50 PM)
Minimum temperature yesterday: 45 °F (at 2:50 AM)
Average temperature yesterday: 53 °F

High & Low Weather Summary for the Past Weeks

 TemperatureHumidityPressure
High64 °F (May 17, 1:50 PM)100% (May 16, 5:50 AM)30.24 "Hg (May 16, 5:50 AM)
Low39 °F (May 16, 1:50 AM)49% (May 23, 1:50 PM)29.59 "Hg (May 18, 8:50 AM)
Average53 °F79%29.96 "Hg
* Reported May 15 9:20 PM — May 30 9:50 PM, Leicester, Weather by CustomWeather, © 2016

Note: Actual official high and low records may vary slightly from our data, if they occured in-between our weather recording intervals... More about our weather records

Advertising

Leicester Weather History for the Previous 24 Hours

Scroll right to see more
 ConditionsComfort  
Time TempWeatherWind HumidityBarometerVisibility
9:50 PM
Mon, May 30
57 °FSunny.16 mph63%30.09 "Hg10 mi
9:20 PM57 °FSunny.13 mph72%30.09 "Hg10 mi
8:50 PM57 °FSunny.15 mph72%30.09 "Hg10 mi
8:20 PM59 °FPassing clouds.16 mph68%30.09 "HgN/A
7:50 PM59 °FPassing clouds.18 mph72%30.09 "HgN/A
7:20 PM59 °FPassing clouds.14 mph72%30.07 "HgN/A
6:50 PM61 °FPassing clouds.16 mph68%30.07 "HgN/A
6:20 PM61 °FScattered clouds.17 mph68%30.07 "HgN/A
5:50 PM63 °FScattered clouds.17 mph68%30.07 "HgN/A
5:20 PM63 °FPartly sunny.16 mph68%30.07 "HgN/A
4:50 PM61 °FPartly sunny.16 mph72%30.07 "HgN/A
4:20 PM61 °FPartly sunny.15 mph72%30.07 "HgN/A
3:50 PM63 °FPartly sunny.15 mph68%30.07 "HgN/A
3:20 PM63 °FPartly sunny.16 mph68%30.07 "HgN/A
2:50 PM63 °FScattered clouds.15 mph73%30.07 "HgN/A
2:20 PM61 °FScattered clouds.14 mph72%30.09 "HgN/A
1:50 PM61 °FPartly sunny.17 mph72%30.07 "HgN/A
1:20 PM59 °FPartly sunny.10 mph72%30.09 "HgN/A
12:50 PM57 °FPartly sunny.12 mph77%30.09 "HgN/A
12:20 PM57 °FPartly sunny.12 mph77%30.09 "HgN/A
11:50 AM55 °FPartly sunny.14 mph82%30.09 "HgN/A
11:20 AM55 °FPartly sunny.12 mph82%30.09 "HgN/A
10:50 AM54 °FPartly sunny.12 mph88%30.07 "HgN/A
10:20 AM52 °FPartly sunny.12 mph94%30.09 "Hg5 mi
9:50 AM52 °FPartly sunny.12 mph94%30.09 "Hg4 mi
9:20 AM50 °FLow clouds.13 mph94%30.07 "Hg4 mi
8:50 AM50 °FPartly sunny.12 mph94%30.07 "HgN/A
8:20 AM50 °FPartly sunny.9 mph94%30.07 "Hg5 mi
7:50 AM50 °FLow clouds.12 mph94%30.07 "HgN/A
7:20 AM50 °FPartly sunny.10 mph94%30.07 "Hg4 mi
6:50 AM50 °FPartly sunny.9 mph94%30.07 "Hg4 mi
6:20 AM50 °FPartly sunny.12 mph94%30.04 "Hg4 mi
5:50 AM50 °FLow clouds.10 mph94%30.04 "Hg4 mi
5:20 AM52 °FLow clouds.10 mph88%30.04 "HgN/A
4:50 AM52 °FLow clouds.8 mph88%30.04 "HgN/A
4:20 AM52 °FLow clouds.10 mph88%30.04 "HgN/A
3:50 AM52 °FPassing clouds.9 mph88%30.04 "HgN/A
3:20 AM52 °FPassing clouds.9 mph88%30.04 "Hg6 mi
2:50 AM50 °FPassing clouds.8 mph94%30.04 "Hg6 mi
2:20 AM52 °FPassing clouds.9 mph88%30.07 "HgN/A
1:50 AM52 °FLow clouds.10 mph88%30.07 "HgN/A
1:20 AM52 °FOvercast.9 mph88%30.07 "HgN/A
12:50 AM52 °FLow clouds.10 mph88%30.07 "HgN/A
12:20 AM52 °FLow clouds.10 mph88%30.04 "HgN/A
11:50 PM
Sun, May 29
52 °FPassing clouds.12 mph94%30.04 "HgN/A
11:20 PM52 °FPassing clouds.7 mph94%30.04 "HgN/A
Weather by CustomWeather, © 2016

See weather overviewHow to use our weather pages